Flag for Bangladesh Weather past 2 weeks in Jessore, Bangladesh

Now
61 °F

Partly cloudy.


Feels Like: 61 °F
Forecast: 80 / 88 °F
Wind: 6 mph from Northeast

Location: Kunming Airport

Current Time: Jul 6, 2015 at 11:59:24 PM

Latest Report: Jul 6, 2015 at 11:00 PM


Visibility: N/A

Pressure: 30.09 "Hg

Humidity: 88%

Dew point: 57 °F

Location of JessoreLocation

Historic Weather in Jessore — Graph

°F

Jessore temperature yesterday

Maximum temperature yesterday: 61 °F (at 1:00 PM)
Minimum temperature yesterday: 54 °F (at 4:00 AM)
Average temperature yesterday: 57 °F

Past Weeks' High & Low Weather Summary

 TemperatureHumidityPressure
High81 °F (Jun 23, 1:00 PM)100% (Jun 22, 5:00 AM)30.15 "Hg (Jun 22, 5:00 AM)
Low54 °F (Jul 5, 4:00 AM)48% (Jun 23, 1:00 PM)29.86 "Hg (Jun 23, 3:00 PM)
Average68 °F78%30.00 "Hg
* Reported Jun 21 10:00 PM — Jul 6 10:00 PM, Jessore, Weather by CustomWeather, © 2015

Note: Actual official high and low records may vary slightly from our data, if they occured in-between our weather recording intervals... More about our weather records

Advertising

Jessore weather history for previous 24 hours

 ConditionsComfort  
Time TempWeatherWind HumidityBarometerVisibility
10:00 PM
Mon, Jul 6
63 °FPassing clouds.3 mph77%30.09 "HgN/A
9:00 PM64 °FPassing clouds.3 mph73%30.09 "HgN/A
8:00 PM64 °FPassing clouds.1 mph73%30.07 "HgN/A
7:00 PM64 °FPassing clouds.1 mph68%30.04 "HgN/A
6:00 PM68 °FPassing clouds.3 mph60%30.04 "HgN/A
5:00 PM70 °FSunny.6 mph57%30.01 "Hg10 mi
4:00 PM72 °FPassing clouds.10 mph57%30.01 "HgN/A
3:00 PM73 °FPassing clouds.8 mph50%30.01 "HgN/A
2:00 PM72 °FScattered clouds.3 mph53%30.04 "HgN/A
1:00 PM70 °FScattered clouds.8 mph57%30.04 "HgN/A
12:00 PM70 °FPassing clouds.10 mph53%30.07 "HgN/A
11:00 AM68 °FPassing clouds.10 mph60%30.09 "HgN/A
10:00 AM64 °FPassing clouds.13 mph60%30.09 "HgN/A
9:00 AM61 °FPassing clouds.6 mph83%30.09 "HgN/A
8:00 AM59 °FPassing clouds.8 mph88%30.09 "HgN/A
7:00 AM59 °FPassing clouds.6 mph88%30.09 "HgN/A
6:00 AM57 °FPassing clouds.1 mph94%30.09 "HgN/A
5:00 AM55 °FMore clouds than sun.3 mph94%30.09 "Hg5 mi
4:00 AM55 °FMostly cloudy.1 mph94%30.09 "Hg5 mi
3:00 AM57 °FMostly cloudy.3 mph94%30.09 "Hg4 mi
2:00 AM57 °FMostly cloudy.3 mph94%30.09 "Hg5 mi
1:00 AM57 °FSprinkles. Partly cloudy.6 mph94%30.09 "Hg4 mi
12:00 AM57 °FPassing clouds.3 mph100%30.09 "Hg4 mi
11:00 PM
Sun, Jul 5
57 °FPassing clouds.8 mph94%30.12 "HgN/A
Weather by CustomWeather, © 2015

See weather overviewHow to use our weather pages